STARLINK-35968 (66636 NORAD) Tracking and Keplerian Element Data

This shows tracking and keplerian element data for the satellite.

Feedback or suggestion? Click here.




ElementValue
Catalog66636
NameSTARLINK-35968
Epoch Orbit545
Epoch Day354.25003472
Epoch Year2025
RAAN151.5318
Inclination53.1601
Eccentricity6.17E-05
Argument of Perigee85.6358
Mean Anonmoly48.065
Mean Motion15.39593203
Decay Rate0.00047465
L11 66636U 25271V 25354.25003472 .00047465 00000+0 11903-2 0 9997
L22 66636 53.1601 151.5318 0000617 85.6358 48.0650 15.39593203 5455



Live tracking and technical data element details for STARLINK-35968 (NORAD 66636). STARLINK-35968 can be tracked NOW for your location showing map with azimuth and elevation plus other details from your city location.







IsCatalogInMostPopularTable: catalog: 66636, numindb: 17
Update: records affected: 1



GetName: 66636 STARLINK-35968

Hit Count: updated at: Mon, 20 Apr 2026 10:28:50 GMT